Location: Sungai Bunut
(2.6333°N, 113.7333°E)
Time: 15:59:26
(UTC+00:00)

Cosmos 1697 Rocket - Pass Details

Date: 28 May 2022
Orbit: 833 x 843 km, 71.0° (Epoch: 03 July)

Event Time Altitude Azimuth Distance (km) Brightness Sun altitude
Rises 11:25:19 0° 204° (SSW) 3,389 5.9 -13.6°
Reaches altitude 10° 11:27:48 10° 208° (SSW) 2,454 5.2 -14.2°
Maximum altitude 11:33:18 56° 285° (WNW) 991 3.4 -15.4°
Drops below altitude 10° 11:38:48 10° 3° (N) 2,450 5.4 -16.7°
Sets 11:41:18 0° 7° (N) 3,383 6.0 -17.3°
